Regional Weather Roundup
Issued by NWS

Home | Current Version | Previous Version | Graphics & Text | Print | Product List | Glossary On
Versions: 1 2 3 4 5 6 7 8 9 10 11 12 13 14 15 16 17 18 19 20 21 22 23 24 25 26 27 28 29 30 31 32 33 34 35 36 37 38 39 40 41 42 43 44 45 46 47 48 49 50
000
ASUS43 KOAX 010902
RWRNE

WEATHER ROUNDUP FOR NEBRASKA
NATIONAL WEATHER SERVICE OMAHA NE
400 AM CDT WED OCT 01 2014

NOTES: SATELLITE DATA IS BEING USED TO AUGMENT CLOUD COVER ABOVE
       12000 FEET.
       "FAIR" INDICATES FEW OR NO CLOUDS BELOW 12,000 FEET WITH NO
       SIGNIFICANT WEATHER AND/OR OBSTRUCTIONS TO VISIBILITY.

  * THESE STATIONS DO NOT REPORT WEATHER SUCH AS RAIN...SNOW OR FOG.

NEZ001>004-019>022-054>056-011000-
NEBRASKA PANHANDLE

CITY           SKY/WX    TMP DP  RH WIND       PRES   REMARKS
SCOTTSBLUFF    CLEAR     46  44  93 NW3       29.82R
ALLIANCE       PTCLDY    47  44  90 NW5       29.79S
CHADRON        MOCLDY    49  47  93 W3        29.78S
KIMBALL        CLEAR     45  41  86 W7        29.84S
SIDNEY         PTCLDY    49  42  77 W9        29.84S
$$

NEZ057>060-069>072-079>082-011000-
SOUTHWEST NEBRASKA

CITY           SKY/WX    TMP DP  RH WIND       PRES   REMARKS
NORTH PLATTE   PTCLDY    52  47  83 CALM      29.76S
IMPERIAL       PTCLDY    50  45  83 N5        29.78S
LEXINGTON      FOG       59  58  97 N6        29.74S VSB 1/4
MCCOOK         MOCLDY    56  54  93 NW3       29.75S FOG
OGALLALA       PTCLDY    51  47  86 W5        29.77F
$$

NEZ005>010-023>029-035>040-094-011000-
NORTH CENTRAL NEBRASKA

CITY           SKY/WX    TMP DP  RH WIND       PRES   REMARKS
VALENTINE      CLOUDY    52  47  83 SW3       29.72S
AINSWORTH      CLOUDY    57  46  68 W5        29.71F
BROKEN BOW     MOCLDY    56  54  93 CALM      29.76R FOG
O`NEILL        CLOUDY    62  61  96 S9        29.71F
ORD            CLOUDY    61  58  90 W7        29.72R
THEDFORD       CLOUDY    59  47  62 W5        29.74S
$$

NEZ041-046>049-061>064-073>077-083>087-011000-
SOUTH CENTRAL NEBRASKA

CITY           SKY/WX    TMP DP  RH WIND       PRES   REMARKS
GRAND ISLAND   FOG       59  58  96 NE3       29.71F VSB 1/4
AURORA         FOG       61  61 100 CALM      29.70S VSB 1/2
HASTINGS       CLOUDY    62  59  90 SE7       29.70F FOG
HEBRON         CLOUDY    64  62  92 CALM      29.69S FOG
HOLDREGE       CLOUDY    62  61  96 CALM      29.72S FOG
KEARNEY *      CLOUDY    63  59  88 SE6       29.72S
YORK           PTCLDY    57  57 100 N3        29.70S FOG
$$

NEZ011>018-030>034-042>045-011000-
NORTHEAST NEBRASKA

CITY           SKY/WX    TMP DP  RH WIND       PRES   REMARKS
NORFOLK        MOCLDY    63  61  93 SE5       29.70F
ALBION         CLOUDY    62  60  94 S5        29.71F
BLAIR          CLOUDY    64  62  93 SE9       29.71S
COLUMBUS *     PTCLDY    57  55  94 E5        29.71F
FREMONT        CLOUDY    63  61  94 SE3       29.71F
TEKAMAH        CLOUDY    62  60  93 SW7       29.71R
WAYNE          MOCLDY    63  62  94 S5        29.71F
$$

NEZ050>053-065>068-078-088>093-011000-
SOUTHEAST NEBRASKA

CITY           SKY/WX    TMP DP  RH WIND       PRES   REMARKS
LINCOLN        CLOUDY    62  60  93 NW12      29.71S
OMAHA EPPLEY   LGT RAIN  63  60  90 SE10      29.70F
BEATRICE       CLOUDY    64  63  96 E6        29.70S FOG
FALLS CITY     LGT RAIN  67  65  93 S9        29.71S
NEBRASKA CITY  CLOUDY    61  61 100 E8        29.73F THUNDER
PLATTSMOUTH      N/A     60  59  94 CALM      29.72F
$$

NEZ044-045-051>053-067-011000-
OMAHA AREA

CITY           SKY/WX    TMP DP  RH WIND       PRES   REMARKS
OMAHA EPPLEY   LGT RAIN  63  60  90 SE10      29.70F
BLAIR          CLOUDY    64  62  93 SE9       29.71S
FREMONT        CLOUDY    63  61  94 SE3       29.71F
MILLARD        LGT RAIN  63  60  92 SE5       29.70F
OFFUTT AFB     CLOUDY    62  62 100 E6        29.70F
PLATTSMOUTH      N/A     60  59  94 CALM      29.72F
WAHOO          CLOUDY    61  58  91 CALM      29.70F
$$



USA.gov is the U.S. government's official web portal to all federal, state and local government web resources and services.